SCP
0 0 0 0 0 0 0 0 0 0 0 0 0 0 0 0 0 0 0 0 0 0 0 0 0 0 0 0 0 0 0 0 0 0 0 0 0 0 0 0 0 0 0
0 0 0 0 0 0 0 0 0 0 0 0 0 0 0 0 0 0 0 0 0 0 0 0 0 0 0 0 0 0 0 0 0 0 0 0 0 0 0 0 0 0 0
0 0 0 0 0 0 0 0 0 0 0 0 0 0 0 0 0 0 0 0 0 0 0 0 0 0 0 0 0 0 0 0 0 0 0 0 0 0 0 0 0 0 0
0 0 0 0 0 0 0 0 0 0 0 0 0 0 0 0 0 0 0 0 0 0 0 0 0 0 0 0 0 0 0 0 0 0 0 0 0 0 0 0 0 0 0
0 0 0 0 0 0 0 0 0 0 0 0 0 0 0 0 0 0 0 0 0 0 0 0 0 0 0 0 0 0 0 0 0 0 0 0 0 0 0 0 0 0 0
0 0 0 0 0 0 0 0 0 0 0 0 0 0 0 0 0 0 0 0 0 0 0 0 0 0 0 0 0 0 0 0 0 0 0 0 0 0 0 0 0 0 0
0 0 0 0 0 0 0 0 0 0 0 0 0 0 0 0 0 0 0 0 0 0 0 0 0 0 0 0 0 0 0 0 0 0 0 0 0 0 0 0 0 0 0
0 0 0 0 0 0 0 0 0 0 0 0 0 0 0 0 0 0 0 0 0 0 0 0 0 0 0 0 0 0 0 0 0 0 0 0 0 0 0 0 0 0 0
0 0 0 0 0 0 0 0 0 0 0 0 0 0 0 0 0 0 0 0 0 0 0 0 0 0 0 0 0 0 0 0 0 0 0 0 0 0 0 0 0 0 0
0 0 0 0 0 0 0 0 0 0 0 0 0 0 0 0 0 0 0 0 0 0 0 0 0 0 0 0 0 0 0 0 0 0 0 0 0 0 0 0 0 0 -0
0 0 0 0 0 0 0 0 0 0 0 0 0 0 0 0 0 0 0 0 0 0 0 0 0 0 0 0 0 0 0 0 0 0 0 0 0 0 0 0 0 0 0
0 0 0 0 0 0 0 0 0 0 0 0 0 0 0 0 0 0 0 0 0 0 0 0 0 0 0 0 0 0 0 0 0 0 0 0 0 0 0 0 0 0 0
0 0 0 0 0 0 0 0 0 0 0 0 0 0 0 0 0 0 0 0 0 0 0 0 0 0 0 0 0 0 0 0 0 0 0 0 0 0 0 0 0 0 0
0 0 0 0 0 0 0 0 0 0 0 0 0 0 0 0 0 0 0 0 0 0 0 0 0 0 0 0 0 0 0 0 0 0 0 0 0 0 0 0 0 0 0
0 0 0 0 0 0 0 0 0 0 0 0 0 0 0 0 0 0 0 0 0 0 0 0 0 0 0 0 0 0 0 0 0 0 0 0 0 0 0 0 0 0 0
0 0 0 0 0 0 0 0 0 0 0 0 0 0 0 0 0 0 0 0 0 0 0 0 0 0 0 0 0 0 0 0 0 0 0 0 0 0 0 0 0 0 0
0 0 0 0 0 0 0 0 0 0 0 0 0 0 0 0 0 0 0 0 0 0 0 0 0 0 0 0 0 0 0 0 0 0 0 0 0 0 0 0 0 0 0
0 0 0 0 0 0 0 0 0 0 0 0 0 0 0 0 0 0 0 0 0 0 0 0 0 0 0 0 0 0 0 0 0 0 0 0 0 0 0 0 0 0 0
0 0 0 0 0 0 0 0 0 0 0 0 0 0 0 0 0 0 0 0 0 0 0 0 0 0 0 0 0 0 0 0 0 0 0 0 0 0 0 0 0 0 0
0 0 0 0 0 0 0 0 0 0 0 0 0 0 0 0 0 0 0 0 0 0 0 0 0 0 0 0 0 0 0 0 0 0 0 0 0 0 0 0 0 0 0
0 0 0 0 0 0 0 0 0 0 0 0 0 0 0 0 0 0 0 0 0 0 0 0 0 0 0 0 0 0 0 0 0 0 0 0 0 0 0 0 0 0 0
0 0 0 0 0 0 0 0 0 0 0 0 0 0 0 0 0 0 0 0 0 0 0 0 0 0 0 0 0 0 0 0 0 0 0 0 0 0 0 0 0 0 0
0 0 0 0 0 0 0 0 0 0 0 0 0 0 0 0 0 0 0 0 0 0 0 0 0 0 0 0 0 0 0 0 0 0 0 0 0 0 0 0 0 0 0
0 0 0 0 0 0 0 0 0 0 0 0 0 0 0 0 0 0 0 0 0 0 0 0 0 0 0 0 0 0 0 0 0 0 0 0 0 0 0 0 0 0 0
0 0 0 0 0 0 0 0 0 0 0 0 0 0 0 0 0 0 0 0 0 0 0 0 0 0 0 0 0 0 0 0 0 0 0 0 0 0 0 0 0 0 0
0 0 0 0 0 0 0 0 0 0 0 0 0 0 0 0 0 0 0 0 0 0 0 0 0 0 0 0 0 0 0 0 0 0 0 0 0 0 0 0 0 0 0
Wind_Speed
2 1 1 1 1 1 1 2 2 2 2 1 1 1 1 1 1 1 1 1 2 1 1 1 1 1 1 1 1 1 1 2 2 1 1 1 1 1 2 2 1 1 2
2 2 1 1 1 1 2 2 2 2 2 2 2 1 1 1 1 2 2 2 2 2 2 1 1 1 1 1 1 1 1 2 3 2 1 1 1 1 2 1 2 1 1
1 2 1 1 1 2 2 2 2 2 2 2 2 2 2 2 2 2 2 2 2 2 2 3 2 2 1 1 1 2 1 1 1 2 1 0 1 1 1 2 2 1 2
1 2 2 2 2 2 2 2 2 2 2 2 2 2 2 2 2 2 2 2 2 2 2 2 2 3 3 3 2 2 2 2 1 1 1 0 1 1 0 1 1 2 2
1 2 3 3 2 1 1 1 1 2 2 1 1 1 1 2 2 2 3 3 3 2 1 1 2 3 4 3 2 3 3 2 2 2 1 1 1 0 1 1 1 1 2
2 2 2 1 1 1 1 1 1 1 1 1 1 1 1 1 2 3 3 2 3 3 2 2 2 3 4 5 4 4 5 4 4 3 2 3 3 3 2 1 1 0 2
2 2 1 2 2 2 1 0 1 1 0 1 1 1 2 2 2 2 3 2 2 3 3 2 2 2 2 1 3 4 4 5 5 4 4 5 4 4 3 2 3 3 3
2 2 2 2 2 2 1 1 1 1 1 1 1 1 1 2 3 3 3 2 2 2 3 3 3 2 2 2 2 1 2 3 4 3 4 5 4 4 4 4 4 2 2
2 2 2 2 2 2 2 2 1 1 1 1 1 1 2 3 4 3 2 1 1 2 3 3 3 3 4 3 2 2 2 3 4 4 4 4 4 4 3 2 2 1 2
3 3 2 2 3 3 3 2 1 1 1 1 1 1 2 2 3 3 2 1 2 2 2 2 4 4 4 4 3 3 4 4 3 2 3 3 3 4 5 4 4 3 2
2 1 1 1 2 2 2 1 1 1 1 1 1 1 1 2 3 2 1 1 2 2 2 2 3 5 5 5 4 3 5 4 2 3 2 2 2 2 3 3 4 4 4
0 0 1 1 1 1 1 1 1 1 1 1 1 2 2 2 2 3 2 2 1 2 3 3 3 5 5 5 4 4 5 3 1 2 2 2 3 3 3 4 5 5 4
1 0 1 1 1 1 1 1 1 1 1 1 1 2 2 2 2 3 3 3 2 2 2 3 4 4 4 3 4 4 3 2 2 2 3 4 4 3 3 2 3 3 3
1 1 1 0 1 0 0 1 1 1 1 1 1 2 2 2 2 2 2 2 2 2 2 2 3 3 2 2 3 3 2 2 3 4 4 3 2 2 3 3 3 3 3
0 1 1 1 0 0 1 1 2 2 3 3 2 2 2 2 4 4 2 2 2 2 2 1 1 1 1 1 1 2 2 2 3 3 3 3 3 3 3 3 3 3 3
0 1 1 1 1 0 0 1 2 2 3 3 3 3 3 4 5 4 3 3 4 3 1 1 2 2 3 3 3 3 3 3 3 3 3 4 4 4 4 3 3 4 4
1 1 1 0 0 1 0 0 1 3 3 3 3 4 4 4 4 4 3 3 3 2 1 2 2 2 3 3 3 3 3 3 3 3 4 4 4 4 3 4 4 4 5
1 1 1 1 1 1 1 1 1 1 2 3 3 4 4 4 4 4 3 2 2 2 2 3 3 3 3 3 3 3 3 3 3 4 4 4 4 4 4 4 5 5 5
0 1 1 1 1 1 1 1 1 1 1 2 2 3 4 4 4 3 2 1 2 3 3 3 3 3 3 3 4 4 4 3 4 4 4 4 4 4 4 4 5 7 6
1 1 1 0 0 1 1 1 1 1 1 2 2 3 3 2 2 2 2 2 2 3 3 3 4 4 4 4 4 4 4 4 4 4 4 4 4 4 5 5 5 5 5
1 1 1 1 1 1 1 1 1 1 2 2 3 3 4 2 2 3 2 2 3 3 4 4 4 4 4 3 3 4 5 4 4 5 5 5 4 5 5 5 5 5 5
1 1 1 1 1 1 2 2 1 2 2 3 3 3 4 2 2 2 3 3 3 3 3 3 3 4 3 4 4 4 5 5 5 5 5 5 5 5 5 5 5 5 5
1 1 1 2 2 2 2 2 2 2 2 3 3 2 2 2 2 3 3 3 3 3 3 3 4 4 4 4 4 4 5 5 5 5 5 5 5 5 5 5 6 6 5
1 1 2 2 2 2 2 2 2 2 3 3 2 2 2 3 3 3 3 3 3 3 3 3 4 5 7 5 4 4 5 5 5 5 6 6 5 5 5 5 5 6 6
1 2 2 2 2 2 2 2 3 2 2 3 3 2 2 3 3 3 3 3 4 4 5 5 4 5 7 7 7 6 8 9 8 5 4 4 5 5 5 5 5 5 5
1 1 2 2 2 2 2 2 2 2 2 2 2 2 2 2 3 3 3 3 3 4 5 4 5 7 7 7 8 9 10 10 9 8 5 4 4 4 4 4 5 4 5
Wind_Direction
203 204 192 224 244 211 205 231 240 243 225 203 202 184 173 171 159 156 172 160 153 156 148 169 206 183 170 167 152 150 153 155 188 265 283 314 335 346 352 353 356 350 342
208 195 214 229 231 222 229 241 238 242 237 214 189 175 181 172 158 169 190 183 183 194 202 175 202 165 178 183 174 182 183 178 174 205 261 318 305 328 345 344 344 354 337
199 190 199 231 235 232 240 242 240 236 236 214 189 187 203 199 182 192 189 188 203 213 207 199 201 174 195 206 192 190 188 166 157 173 219 258 298 352 6 352 354 346 336
193 191 206 227 234 239 243 239 236 227 218 217 218 208 204 202 195 186 180 192 205 227 229 216 203 194 203 198 194 195 172 155 151 159 198 247 269 314 57 6 340 337 325
193 210 228 234 233 229 243 254 242 217 216 211 205 215 206 202 204 195 191 195 197 211 236 240 228 224 220 203 193 186 171 170 170 174 209 228 237 205 227 220 245 306 307
197 226 241 230 227 228 234 238 230 228 216 181 192 200 219 244 242 213 199 191 190 195 219 249 258 248 246 238 228 203 185 179 186 186 206 220 234 218 203 199 192 226 285
216 232 235 220 218 224 215 167 219 221 175 164 202 198 225 259 267 234 208 193 190 197 209 229 261 265 258 238 234 225 224 220 203 191 199 219 215 208 190 200 208 209 227
227 235 232 215 214 210 187 196 220 209 199 218 223 228 236 266 272 258 224 190 192 208 212 217 226 241 236 216 203 225 242 246 235 221 218 224 221 205 197 202 204 211 245
239 248 238 212 201 194 200 219 222 214 238 244 244 231 235 267 271 259 225 173 198 230 231 225 219 224 240 229 203 218 250 269 262 244 245 241 228 214 187 149 161 174 251
238 252 245 211 202 205 210 216 222 210 227 239 278 257 245 263 285 272 216 171 203 237 251 250 247 244 248 227 211 213 232 250 251 259 262 268 248 225 208 197 189 196 215
244 257 258 223 213 207 200 204 199 202 209 248 274 283 278 280 291 285 246 191 207 221 240 249 249 254 255 246 237 225 239 244 226 223 240 254 259 237 224 219 209 201 206
210 210 278 270 247 206 175 189 181 177 197 254 288 315 312 303 303 292 272 266 263 228 239 246 250 257 257 256 249 245 250 254 226 219 232 242 241 243 236 226 223 222 226
83 174 266 299 290 219 181 179 177 173 197 241 252 279 295 311 310 308 295 289 284 269 259 259 269 271 269 262 254 257 253 229 213 228 241 243 237 238 236 232 229 229 239
81 309 293 311 319 311 253 196 188 196 210 239 253 262 282 299 299 298 282 283 285 280 286 285 286 289 273 266 273 264 245 227 227 235 243 249 244 231 234 229 227 221 235
57 318 316 314 265 287 293 258 224 224 215 219 231 234 242 266 273 281 275 266 257 255 282 315 323 300 275 270 269 264 252 241 244 247 246 251 250 244 241 229 226 222 228
92 311 300 299 281 230 251 325 318 281 277 263 254 247 255 260 285 288 287 293 290 290 305 278 263 260 258 255 252 257 250 247 245 240 240 241 244 245 246 238 230 227 237
197 251 258 258 254 247 224 199 317 330 333 320 298 288 280 287 295 295 290 297 301 302 277 268 266 264 263 264 259 254 256 256 253 245 244 244 243 246 248 242 235 236 241
221 245 239 235 246 236 229 221 229 290 325 323 322 320 311 303 301 298 303 330 322 306 262 258 260 263 263 261 262 264 266 268 260 255 250 249 245 244 247 246 236 234 240
245 286 265 229 240 253 250 242 249 266 276 295 314 322 326 318 313 315 322 297 273 278 276 270 264 261 260 260 264 266 264 261 264 263 257 254 250 246 248 247 244 242 238
249 284 299 257 261 279 271 257 256 259 272 286 294 300 319 336 323 308 294 275 269 272 276 276 274 269 266 264 263 262 262 261 261 259 260 256 250 246 250 251 248 243 238
251 265 309 315 255 250 250 249 255 261 268 275 280 287 296 291 277 281 281 276 271 270 271 272 273 273 269 267 266 264 263 262 257 256 258 256 254 252 251 250 247 242 240
225 231 243 252 252 254 260 262 265 265 270 275 285 290 285 287 277 283 283 280 279 279 281 277 275 275 273 269 266 265 266 268 263 258 256 254 251 250 250 249 246 242 237
210 232 253 265 259 263 269 266 262 263 265 268 275 283 283 277 275 274 278 282 284 286 288 286 283 285 285 280 273 265 263 265 264 262 260 256 251 249 247 247 247 245 238
229 244 256 262 265 260 258 262 260 261 265 271 275 274 275 276 277 278 279 282 286 288 287 285 282 284 287 288 283 276 269 270 268 260 255 254 255 254 250 248 244 242 240
247 257 262 259 257 259 263 265 265 266 269 275 278 278 278 281 286 291 290 290 292 291 291 289 286 285 286 287 287 288 285 281 277 271 257 251 250 251 253 249 244 241 238
240 258 270 270 265 261 261 269 274 278 280 285 288 289 291 294 295 298 302 302 301 300 299 296 292 292 292 290 288 290 292 286 277 272 262 255 255 253 250 249 246 238 235